,,Stat6,,Stat2,,Stat8,,Stat9,,Stat10,,Wind1,,Wind1,
time,status,PA1M_AVG,status,PR1M_SUM,status,RH1M_AVG,status,SR1M_AVG,status,TA1M_AVG,status,W1dAve1m,status,W1sAve1m,
2008-01-09, 00:00:00,VALID,919.195,VALID,0,VALID,100,VALID,0,VALID,19.302,VALID,115,VALID,0,
2008-01-09, 00:01:00,VALID,919.181,VALID,0,VALID,100,VALID,-0.0339617,VALID,19.3187,VALID,115,VALID,0,
2008-01-09, 00:02:00,VALID,919.176,VALID,0,VALID,100,VALID,-0.0339617,VALID,19.3155,VALID,115,VALID,0,
2008-01-09, 00:03:00,VALID,919.155,VALID,0,VALID,100,VALID,-0.0169808,VALID,19.2993,VALID,115,VALID,0,
2008-01-09, 00:04:00,VALID,919.137,VALID,0,VALID,100,VALID,-0.0339617,VALID,19.303,VALID,115,VALID,0,
2008-01-09, 00:05:00,VALID,919.113,VALID,0,VALID,100,VALID,-0.0339617,VALID,19.2893,VALID,115,VALID,0,
2008-01-09, 00:06:00,VALID,919.095,VALID,0,VALID,100,VALID,0,VALID,19.2958,VALID,115,VALID,0,
2008-01-09, 00:07:00,VALID,919.061,VALID,0,VALID,100,VALID,0,VALID,19.309,VALID,116,VALID,0,
2008-01-09, 00:08:00,VALID,919.037,VALID,0,VALID,100,VALID,0,VALID,19.3217,VALID,118,VALID,0,
2008-01-09, 00:09:00,VALID,919.017,VALID,0,VALID,100,VALID,-0.0169808,VALID,19.3145,VALID,121,VALID,0,
2008-01-09, 00:10:00,VALID,918.998,VALID,0,VALID,100,VALID,-0.0339617,VALID,19.305,VALID,121,VALID,0,
2008-01-09, 00:11:00,VALID,918.992,VALID,0,VALID,100,VALID,-0.0169808,VALID,19.2856,VALID,121,VALID,0,
2008-01-09, 00:12:00,VALID,918.973,VALID,0,VALID,100,VALID,0,VALID,19.2663,VALID,121,VALID,0,
2008-01-09, 00:13:00,VALID,918.957,VALID,0,VALID,100,VALID,-0.0169808,VALID,19.2631,VALID,121,VALID,0.379836,
2008-01-09, 00:14:00,VALID,918.957,VALID,0,VALID,100,VALID,0,VALID,19.2561,VALID,121,VALID,0.323946,
2008-01-09, 00:15:00,VALID,918.956,VALID,0,VALID,100,VALID,-0.0169808,VALID,19.2663,VALID,123,VALID,0.531059,
2008-01-09, 00:16:00,VALID,918.935,VALID,0,VALID,100,VALID,0,VALID,19.2826,VALID,127,VALID,0.6337,
2008-01-09, 00:17:00,VALID,918.93,VALID,0,VALID,100,VALID,0,VALID,19.289,VALID,133,VALID,0.376999,
2008-01-09, 00:18:00,VALID,918.923,VALID,0,VALID,100,VALID,0,VALID,19.2923,VALID,143,VALID,0.71189,
2008-01-09, 00:19:00,VALID,918.899,VALID,0,VALID,100,VALID,-0.0169808,VALID,19.3055,VALID,153,VALID,0.654167,
2008-01-09, 00:20:00,VALID,918.89,VALID,0,VALID,100,VALID,0,VALID,19.2985,VALID,160,VALID,0.758185,
2008-01-09, 00:21:00,VALID,918.874,VALID,0,VALID,100,VALID,-0.0169808,VALID,19.292,VALID,158,VALID,0.660666,
2008-01-09, 00:22:00,VALID,918.857,VALID,0,VALID,100,VALID,0,VALID,19.3018,VALID,157,VALID,0.4375,
2008-01-09, 00:23:00,VALID,918.828,VALID,0,VALID,100,VALID,-0.0169808,VALID,19.302,VALID,152,VALID,0.620722,
2008-01-09, 00:24:00,VALID,918.809,VALID,0,VALID,100,VALID,0,VALID,19.2788,VALID,148,VALID,0.645064,
2008-01-09, 00:25:00,VALID,918.808,VALID,0,VALID,100,VALID,-0.0339617,VALID,19.2858,VALID,145,VALID,0.601935,
2008-01-09, 00:26:00,VALID,918.8,VALID,0,VALID,100,VALID,0,VALID,19.2723,VALID,135,VALID,0.773628,
2008-01-09, 00:27:00,VALID,918.802,VALID,0,VALID,100,VALID,-0.0509425,VALID,19.2671,VALID,130,VALID,0.710243,
2008-01-09, 00:28:00,VALID,918.809,VALID,0,VALID,100,VALID,-0.0849042,VALID,19.2808,VALID,134,VALID,0.776105,
2008-01-09, 00:29:00,VALID,918.818,VALID,0,VALID,100,VALID,-0.101885,VALID,19.2908,VALID,137,VALID,1.04929,
2008-01-09, 00:30:00,VALID,918.826,VALID,0,VALID,100,VALID,-0.101885,VALID,19.2903,VALID,144,VALID,0.713728,
2008-01-09, 00:31:00,VALID,918.831,VALID,0,VALID,100,VALID,-0.118866,VALID,19.3002,VALID,158,VALID,1.0932,
2008-01-09, 00:32:00,VALID,918.831,VALID,0,VALID,100,VALID,-0.135847,VALID,19.3197,VALID,166,VALID,0.863839,
2008-01-09, 00:33:00,VALID,918.8,VALID,0,VALID,100,VALID,-0.101885,VALID,19.3227,VALID,168,VALID,1.14063,
2008-01-09, 00:34:00,VALID,918.768,VALID,0,VALID,100,VALID,-0.135847,VALID,19.3294,VALID,169,VALID,1.109,
2008-01-09, 00:35:00,VALID,918.733,VALID,0,VALID,100,VALID,-0.101885,VALID,19.3357,VALID,160,VALID,0.377308,
2008-01-09, 00:36:00,VALID,918.71,VALID,0,VALID,100,VALID,-0.118866,VALID,19.3489,VALID,168,VALID,1.12589,
2008-01-09, 00:37:00,VALID,918.669,VALID,0,VALID,100,VALID,-0.0679233,VALID,19.3389,VALID,157,VALID,0.769531,
2008-01-09, 00:38:00,VALID,918.65,VALID,0,VALID,100,VALID,-0.101885,VALID,19.3457,VALID,178,VALID,0.539825,
2008-01-09, 00:39:00,VALID,918.644,VALID,0,VALID,100,VALID,-0.101885,VALID,19.3424,VALID,135,VALID,0.11582,
2008-01-09, 00:40:00,VALID,918.644,VALID,0,VALID,100,VALID,-0.0849042,VALID,19.3422,VALID,136,VALID,0.00508721,
2008-01-09, 00:41:00,VALID,918.641,VALID,0,VALID,100,VALID,-0.118866,VALID,19.3452,VALID,153,VALID,0,
2008-01-09, 00:42:00,VALID,918.661,VALID,0,VALID,100,VALID,-0.0679233,VALID,19.3482,VALID,157,VALID,0,
2008-01-09, 00:43:00,VALID,918.663,VALID,0,VALID,100,VALID,0,VALID,19.3604,VALID,175,VALID,0,
2008-01-09, 00:44:00,VALID,918.674,VALID,0,VALID,100,VALID,0,VALID,19.3405,VALID,181,VALID,0,
2008-01-09, 00:45:00,VALID,918.67,VALID,0,VALID,100,VALID,0.0169808,VALID,19.327,VALID,182,VALID,0,
2008-01-09, 00:46:00,VALID,918.668,VALID,0,VALID,100,VALID,0.0339617,VALID,19.3275,VALID,182,VALID,0,
2008-01-09, 00:47:00,VALID,918.654,VALID,0,VALID,100,VALID,0,VALID,19.341,VALID,182,VALID,0,
2008-01-09, 00:48:00,VALID,918.645,VALID,0,VALID,100,VALID,-0.0169808,VALID,19.3312,VALID,182,VALID,0,
2008-01-09, 00:49:00,VALID,918.619,VALID,0,VALID,100,VALID,0,VALID,19.3242,VALID,181,VALID,0,
2008-01-09, 00:50:00,VALID,918.605,VALID,0,VALID,100,VALID,0.0169808,VALID,19.315,VALID,177,VALID,0,
2008-01-09, 00:51:00,VALID,918.578,VALID,0,VALID,100,VALID,0,VALID,19.3018,VALID,158,VALID,0,
2008-01-09, 00:52:00,VALID,918.559,VALID,0,VALID,100,VALID,0,VALID,19.2988,VALID,152,VALID,0,
2008-01-09, 00:53:00,VALID,918.551,VALID,0,VALID,100,VALID,0,VALID,19.289,VALID,154,VALID,0,
2008-01-09, 00:54:00,VALID,918.531,VALID,0,VALID,100,VALID,-0.0169808,VALID,19.2793,VALID,151,VALID,0,
2008-01-09, 00:55:00,VALID,918.53,VALID,0,VALID,100,VALID,0,VALID,19.2693,VALID,155,VALID,0,
2008-01-09, 00:56:00,VALID,918.514,VALID,0,VALID,100,VALID,-0.0169808,VALID,19.2631,VALID,160,VALID,0,
2008-01-09, 00:57:00,VALID,918.495,VALID,0,VALID,100,VALID,0,VALID,19.2534,VALID,160,VALID,0,
2008-01-09, 00:58:00,VALID,918.506,VALID,0,VALID,100,VALID,0,VALID,19.2434,VALID,160,VALID,0,
2008-01-09, 00:59:00,VALID,918.495,VALID,0,VALID,100,VALID,0,VALID,19.2531,VALID,160,VALID,0,
2008-01-09, 01:00:00,VALID,918.489,VALID,0,VALID,100,VALID,0,VALID,19.2534,VALID,160,VALID,0,
2008-01-09, 01:01:00,VALID,918.463,VALID,0,VALID,100,VALID,0,VALID,19.2534,VALID,160,VALID,0,
2008-01-09, 01:02:00,VALID,918.464,VALID,0,VALID,100,VALID,0,VALID,19.2436,VALID,160,VALID,0,
2008-01-09, 01:03:00,VALID,918.448,VALID,0,VALID,100,VALID,0.0169808,VALID,19.2436,VALID,160,VALID,0,
2008-01-09, 01:04:00,VALID,918.447,VALID,0,VALID,100,VALID,0.0509425,VALID,19.2436,VALID,160,VALID,0,
2008-01-09, 01:05:00,VALID,918.45,VALID,0,VALID,100,VALID,0.0169808,VALID,19.2431,VALID,160,VALID,0,
2008-01-09, 01:06:00,VALID,918.451,VALID,0,VALID,100,VALID,0.0169808,VALID,19.2529,VALID,160,VALID,0,
2008-01-09, 01:07:00,VALID,918.446,VALID,0,VALID,100,VALID,0.0169808,VALID,19.2661,VALID,160,VALID,0,
2008-01-09, 01:08:00,VALID,918.444,VALID,0,VALID,100,VALID,0,VALID,19.2726,VALID,160,VALID,0,
2008-01-09, 01:09:00,VALID,918.437,VALID,0,VALID,100,VALID,0,VALID,19.289,VALID,160,VALID,0,
2008-01-09, 01:10:00,VALID,918.439,VALID,0,VALID,100,VALID,0,VALID,19.2788,VALID,154,VALID,0,
2008-01-09, 01:11:00,VALID,918.421,VALID,0,VALID,100,VALID,0.0169808,VALID,19.2142,VALID,119,VALID,0,
2008-01-09, 01:12:00,VALID,918.414,VALID,0,VALID,100,VALID,-0.0339617,VALID,19.1855,VALID,113,VALID,0,
2008-01-09, 01:13:00,VALID,918.398,VALID,0,VALID,100,VALID,-0.101885,VALID,19.1508,VALID,97,VALID,0,
2008-01-09, 01:14:00,VALID,918.4,VALID,0,VALID,100,VALID,-0.118866,VALID,19.1313,VALID,93,VALID,0,
2008-01-09, 01:15:00,VALID,918.407,VALID,0,VALID,100,VALID,-0.101885,VALID,19.1181,VALID,87,VALID,0,
2008-01-09, 01:16:00,VALID,918.388,VALID,0,VALID,100,VALID,-0.118866,VALID,19.1186,VALID,87,VALID,0,
2008-01-09, 01:17:00,VALID,918.383,VALID,0,VALID,100,VALID,-0.118866,VALID,19.1216,VALID,84,VALID,0,
2008-01-09, 01:18:00,VALID,918.395,VALID,0,VALID,100,VALID,-0.118866,VALID,19.1246,VALID,80,VALID,0,
2008-01-09, 01:19:00,VALID,918.391,VALID,0,VALID,100,VALID,-0.118866,VALID,19.1281,VALID,80,VALID,0,
2008-01-09, 01:20:00,VALID,918.388,VALID,0,VALID,100,VALID,-0.101885,VALID,19.1218,VALID,80,VALID,0,
2008-01-09, 01:21:00,VALID,918.391,VALID,0,VALID,100,VALID,-0.101885,VALID,19.1186,VALID,80,VALID,0,
2008-01-09, 01:22:00,VALID,918.384,VALID,0,VALID,100,VALID,-0.101885,VALID,19.1121,VALID,80,VALID,0,
2008-01-09, 01:23:00,VALID,918.379,VALID,0,VALID,100,VALID,-0.101885,VALID,19.1088,VALID,80,VALID,0,
2008-01-09, 01:24:00,VALID,918.385,VALID,0,VALID,100,VALID,-0.118866,VALID,19.0827,VALID,106,VALID,0,
2008-01-09, 01:25:00,VALID,918.38,VALID,0,VALID,100,VALID,-0.101885,VALID,19.0859,VALID,126,VALID,0,
2008-01-09, 01:26:00,VALID,918.377,VALID,0,VALID,100,VALID,-0.101885,VALID,19.0796,VALID,134,VALID,0,
2008-01-09, 01:27:00,VALID,918.375,VALID,0,VALID,100,VALID,-0.0509425,VALID,19.0891,VALID,138,VALID,0,
2008-01-09, 01:28:00,VALID,918.373,VALID,0,VALID,100,VALID,0,VALID,19.0944,VALID,139,VALID,0,
2008-01-09, 01:29:00,VALID,918.396,VALID,0,VALID,100,VALID,0.0169808,VALID,19.1009,VALID,141,VALID,0,
2008-01-09, 01:30:00,VALID,918.393,VALID,0,VALID,100,VALID,0,VALID,19.1009,VALID,147,VALID,0,
2008-01-09, 01:31:00,VALID,918.416,VALID,0,VALID,100,VALID,0,VALID,19.1074,VALID,159,VALID,0.183789,
2008-01-09, 01:32:00,VALID,918.413,VALID,0,VALID,100,VALID,0.0169808,VALID,19.1139,VALID,158,VALID,0.400436,
2008-01-09, 01:33:00,VALID,918.42,VALID,0,VALID,100,VALID,0.0339617,VALID,19.1196,VALID,167,VALID,0.650112,
2008-01-09, 01:34:00,VALID,918.423,VALID,0,VALID,100,VALID,-0.0169808,VALID,19.1301,VALID,162,VALID,0.854048,
2008-01-09, 01:35:00,VALID,918.427,VALID,0,VALID,100,VALID,0,VALID,19.1366,VALID,170,VALID,0.363653,
2008-01-09, 01:36:00,VALID,918.424,VALID,0,VALID,100,VALID,0.0169808,VALID,19.1593,VALID,167,VALID,0.525343,
2008-01-09, 01:37:00,VALID,918.406,VALID,0,VALID,100,VALID,0,VALID,19.169,VALID,170,VALID,0.189453,
2008-01-09, 01:38:00,VALID,918.419,VALID,0,VALID,100,VALID,0,VALID,19.182,VALID,172,VALID,0.353198,
2008-01-09, 01:39:00,VALID,918.393,VALID,0,VALID,100,VALID,0.0169808,VALID,19.1783,VALID,170,VALID,0.0197806,
2008-01-09, 01:40:00,VALID,918.398,VALID,0,VALID,100,VALID,-0.0169808,VALID,19.1947,VALID,172,VALID,0.212081,
2008-01-09, 01:41:00,VALID,918.383,VALID,0,VALID,100,VALID,0.0169808,VALID,19.2042,VALID,180,VALID,0.600419,
2008-01-09, 01:42:00,VALID,918.37,VALID,0,VALID,100,VALID,0,VALID,19.2077,VALID,185,VALID,0.214208,
2008-01-09, 01:43:00,VALID,918.368,VALID,0,VALID,100,VALID,-0.0169808,VALID,19.2177,VALID,168,VALID,0.772321,
2008-01-09, 01:44:00,VALID,918.351,VALID,0,VALID,100,VALID,0.0339617,VALID,19.2077,VALID,146,VALID,0.877604,
2008-01-09, 01:45:00,VALID,918.331,VALID,0,VALID,100,VALID,0.0169808,VALID,19.2042,VALID,146,VALID,0.351004,
2008-01-09, 01:46:00,VALID,918.305,VALID,0,VALID,100,VALID,0,VALID,19.2045,VALID,122,VALID,0.553622,
2008-01-09, 01:47:00,VALID,918.294,VALID,0,VALID,100,VALID,0,VALID,19.1845,VALID,114,VALID,0.599964,
2008-01-09, 01:48:01,VALID,918.277,VALID,0,VALID,100,VALID,0,VALID,19.1848,VALID,117,VALID,0.00266335,
2008-01-09, 01:49:00,VALID,918.256,VALID,0,VALID,100,VALID,0.0169808,VALID,19.1818,VALID,110,VALID,0,
2008-01-09, 01:50:00,VALID,918.232,VALID,0,VALID,100,VALID,0,VALID,19.172,VALID,109,VALID,0,
2008-01-09, 01:51:00,VALID,918.234,VALID,0,VALID,100,VALID,0,VALID,19.1753,VALID,109,VALID,0,
2008-01-09, 01:52:00,VALID,918.211,VALID,0,VALID,100,VALID,0,VALID,19.1688,VALID,119,VALID,0,
2008-01-09, 01:53:00,VALID,918.194,VALID,0,VALID,100,VALID,0,VALID,19.1588,VALID,104,VALID,0,
2008-01-09, 01:54:00,VALID,918.195,VALID,0,VALID,100,VALID,0,VALID,19.1363,VALID,107,VALID,0,
2008-01-09, 01:55:01,VALID,918.166,VALID,0,VALID,100,VALID,0.0169808,VALID,19.1236,VALID,117,VALID,0,
2008-01-09, 01:56:00,VALID,918.157,VALID,0,VALID,100,VALID,0,VALID,19.1236,VALID,118,VALID,0,
2008-01-09, 01:57:01,VALID,918.155,VALID,0,VALID,100,VALID,0,VALID,19.0967,VALID,118,VALID,0,
2008-01-09, 01:58:00,VALID,918.145,VALID,0,VALID,100,VALID,0.0169808,VALID,19.1104,VALID,118,VALID,0,
2008-01-09, 01:59:00,VALID,918.123,VALID,0,VALID,100,VALID,0.0169808,VALID,19.1067,VALID,117,VALID,0,
2008-01-09, 02:00:00,VALID,918.124,VALID,0,VALID,100,VALID,0,VALID,19.1139,VALID,117,VALID,0,
2008-01-09, 02:01:00,VALID,918.109,VALID,0,VALID,100,VALID,0.0339617,VALID,19.1236,VALID,117,VALID,0,
2008-01-09, 02:02:01,VALID,918.105,VALID,0,VALID,100,VALID,0.0339617,VALID,19.1134,VALID,128,VALID,0,
2008-01-09, 02:03:01,VALID,918.114,VALID,0,VALID,100,VALID,0,VALID,19.1236,VALID,160,VALID,0,
2008-01-09, 02:04:00,VALID,918.116,VALID,0,VALID,100,VALID,0.0169808,VALID,19.1037,VALID,171,VALID,0.141197,
2008-01-09, 02:05:01,VALID,918.105,VALID,0,VALID,100,VALID,0.0509425,VALID,19.0902,VALID,176,VALID,0.821243,
2008-01-09, 02:06:00,VALID,918.111,VALID,0,VALID,100,VALID,0.0679233,VALID,19.1004,VALID,178,VALID,0.442649,
2008-01-09, 02:07:01,VALID,918.112,VALID,0,VALID,100,VALID,0.0339617,VALID,19.1032,VALID,180,VALID,0.0594113,
2008-01-09, 02:08:01,VALID,918.102,VALID,0,VALID,100,VALID,0,VALID,19.1171,VALID,165,VALID,0.897372,
2008-01-09, 02:09:01,VALID,918.091,VALID,0,VALID,100,VALID,0,VALID,19.1136,VALID,166,VALID,0.645894,
2008-01-09, 02:10:00,VALID,918.103,VALID,0,VALID,100,VALID,0.0169808,VALID,19.1266,VALID,140,VALID,0.462081,
2008-01-09, 02:11:00,VALID,918.096,VALID,0,VALID,100,VALID,0,VALID,19.1196,VALID,79,VALID,0.185595,
2008-01-09, 02:12:01,VALID,918.092,VALID,0,VALID,100,VALID,-0.0509425,VALID,19.1306,VALID,87,VALID,0.0595238,
2008-01-09, 02:13:00,VALID,918.094,VALID,0,VALID,100,VALID,-0.0509425,VALID,19.1246,VALID,92,VALID,0.0142663,
2008-01-09, 02:14:00,VALID,918.092,VALID,0,VALID,100,VALID,-0.0509425,VALID,19.1086,VALID,102,VALID,0,
2008-01-09, 02:15:01,VALID,918.071,VALID,0,VALID,100,VALID,-0.0679233,VALID,19.1054,VALID,102,VALID,0,
2008-01-09, 02:16:00,VALID,918.056,VALID,0,VALID,100,VALID,-0.0509425,VALID,19.0951,VALID,102,VALID,0,
2008-01-09, 02:17:00,VALID,918.042,VALID,0,VALID,100,VALID,-0.0509425,VALID,19.0789,VALID,102,VALID,0,
2008-01-09, 02:18:01,VALID,918.045,VALID,0,VALID,100,VALID,-0.0509425,VALID,19.0495,VALID,102,VALID,0,
2008-01-09, 02:19:01,VALID,918.025,VALID,0,VALID,100,VALID,-0.0849042,VALID,19.0502,VALID,102,VALID,0,
2008-01-09, 02:20:00,VALID,918.016,VALID,0,VALID,100,VALID,-0.0849042,VALID,19.0435,VALID,89,VALID,0,
2008-01-09, 02:21:01,VALID,917.993,VALID,0,VALID,100,VALID,-0.0849042,VALID,19.0537,VALID,69,VALID,0,
2008-01-09, 02:22:00,VALID,917.98,VALID,0,VALID,100,VALID,-0.0679233,VALID,19.047,VALID,51,VALID,0,
2008-01-09, 02:23:00,VALID,917.959,VALID,0,VALID,100,VALID,-0.101885,VALID,19.0375,VALID,44,VALID,0.338021,
2008-01-09, 02:24:01,VALID,917.951,VALID,0,VALID,100,VALID,-0.0849042,VALID,19.0407,VALID,45,VALID,0.29154,
2008-01-09, 02:25:00,VALID,917.939,VALID,0,VALID,100,VALID,-0.0679233,VALID,19.0307,VALID,45,VALID,0,
2008-01-09, 02:26:01,VALID,917.921,VALID,0,VALID,100,VALID,-0.101885,VALID,19.018,VALID,45,VALID,0,
2008-01-09, 02:27:00,VALID,917.899,VALID,0,VALID,100,VALID,-0.101885,VALID,18.9953,VALID,45,VALID,0,
2008-01-09, 02:28:00,VALID,917.888,VALID,0,VALID,100,VALID,-0.0849042,VALID,18.9858,VALID,45,VALID,0,
2008-01-09, 02:29:00,VALID,917.887,VALID,0,VALID,100,VALID,-0.101885,VALID,18.9726,VALID,45,VALID,0,
2008-01-09, 02:30:01,VALID,917.88,VALID,0,VALID,100,VALID,-0.0849042,VALID,18.9654,VALID,45,VALID,0,
2008-01-09, 02:31:00,VALID,917.876,VALID,0,VALID,100,VALID,-0.0849042,VALID,18.9791,VALID,45,VALID,0,
2008-01-09, 02:32:01,VALID,917.866,VALID,0,VALID,100,VALID,-0.0679233,VALID,18.9721,VALID,45,VALID,0,
2008-01-09, 02:33:00,VALID,917.853,VALID,0,VALID,100,VALID,-0.0679233,VALID,18.9691,VALID,45,VALID,0,
2008-01-09, 02:34:01,VALID,917.831,VALID,0,VALID,100,VALID,-0.0509425,VALID,18.9823,VALID,45,VALID,0,
2008-01-09, 02:35:00,VALID,917.802,VALID,0,VALID,100,VALID,-0.101885,VALID,18.9951,VALID,45,VALID,0,
2008-01-09, 02:36:01,VALID,917.781,VALID,0,VALID,100,VALID,-0.0849042,VALID,19.0048,VALID,45,VALID,0,
2008-01-09, 02:37:00,VALID,917.745,VALID,0,VALID,100,VALID,-0.0339617,VALID,18.9948,VALID,45,VALID,0,
2008-01-09, 02:38:01,VALID,917.702,VALID,0,VALID,100,VALID,-0.0679233,VALID,18.9821,VALID,45,VALID,0,
2008-01-09, 02:39:01,VALID,917.678,VALID,0,VALID,100,VALID,-0.0679233,VALID,18.9691,VALID,45,VALID,0.0868253,
2008-01-09, 02:40:01,VALID,917.66,VALID,0,VALID,100,VALID,-0.0849042,VALID,18.9497,VALID,45,VALID,0.457465,
2008-01-09, 02:41:01,VALID,917.635,VALID,0,VALID,100,VALID,-0.0849042,VALID,18.9297,VALID,45,VALID,0.675872,
2008-01-09, 02:42:01,VALID,917.641,VALID,0,VALID,100,VALID,-0.0679233,VALID,18.9033,VALID,46,VALID,0.702363,
2008-01-09, 02:43:00,VALID,917.617,VALID,0,VALID,100,VALID,0,VALID,18.906,VALID,51,VALID,0.695313,
2008-01-09, 02:44:00,VALID,917.615,VALID,0.2,VALID,100,VALID,0.0169808,VALID,18.8963,VALID,52,VALID,0.707485,
2008-01-09, 02:45:00,VALID,917.596,VALID,0,VALID,100,VALID,0.0339617,VALID,18.8896,VALID,66,VALID,0.695685,
2008-01-09, 02:46:00,VALID,917.573,VALID,0,VALID,100,VALID,0.0339617,VALID,18.8727,VALID,70,VALID,0.0833939,
2008-01-09, 02:47:00,VALID,917.545,VALID,0,VALID,100,VALID,0.0169808,VALID,18.8629,VALID,70,VALID,0.119336,
2008-01-09, 02:48:00,VALID,917.515,VALID,0,VALID,100,VALID,0.0339617,VALID,18.8597,VALID,68,VALID,0.575838,
2008-01-09, 02:49:00,VALID,917.492,VALID,0,VALID,100,VALID,0.0169808,VALID,18.8739,VALID,66,VALID,0.599144,
2008-01-09, 02:50:00,VALID,917.468,VALID,0,VALID,100,VALID,0.0169808,VALID,18.8706,VALID,66,VALID,0.250372,
2008-01-09, 02:51:00,VALID,917.449,VALID,0,VALID,100,VALID,0.0339617,VALID,18.8572,VALID,66,VALID,0.428499,
2008-01-09, 02:52:00,VALID,917.434,VALID,0,VALID,100,VALID,0.0169808,VALID,18.8699,VALID,66,VALID,0.192522,
2008-01-09, 02:53:00,VALID,917.422,VALID,0,VALID,100,VALID,0.0169808,VALID,18.8734,VALID,66,VALID,0,
2008-01-09, 02:54:00,VALID,917.424,VALID,0,VALID,100,VALID,0.0509425,VALID,18.8799,VALID,66,VALID,0,
2008-01-09, 02:55:00,VALID,917.427,VALID,0,VALID,100,VALID,0.0509425,VALID,18.8861,VALID,66,VALID,0,
2008-01-09, 02:56:00,VALID,917.41,VALID,0,VALID,100,VALID,0.0169808,VALID,18.8859,VALID,66,VALID,0,
2008-01-09, 02:57:00,VALID,917.394,VALID,0,VALID,100,VALID,0.0169808,VALID,18.9058,VALID,66,VALID,0,
2008-01-09, 02:58:00,VALID,917.384,VALID,0,VALID,100,VALID,0.0509425,VALID,18.9223,VALID,66,VALID,0,
2008-01-09, 02:59:00,VALID,917.349,VALID,0,VALID,100,VALID,0,VALID,18.932,VALID,66,VALID,0,
2008-01-09, 03:00:00,VALID,917.32,VALID,0,VALID,100,VALID,0.0509425,VALID,18.925,VALID,66,VALID,0,
2008-01-09, 03:01:00,VALID,917.298,VALID,0,VALID,100,VALID,0.0509425,VALID,18.925,VALID,66,VALID,0,
2008-01-09, 03:02:00,VALID,917.273,VALID,0,VALID,100,VALID,0,VALID,18.906,VALID,66,VALID,0,
2008-01-09, 03:03:00,VALID,917.27,VALID,0,VALID,100,VALID,0,VALID,18.8833,VALID,66,VALID,0,
2008-01-09, 03:04:00,VALID,917.254,VALID,0,VALID,100,VALID,0,VALID,18.8701,VALID,66,VALID,0,
2008-01-09, 03:05:00,VALID,917.26,VALID,0,VALID,100,VALID,0,VALID,18.8477,VALID,66,VALID,0,
2008-01-09, 03:06:00,VALID,917.253,VALID,0,VALID,100,VALID,0.0339617,VALID,18.822,VALID,66,VALID,0,
2008-01-09, 03:07:00,VALID,917.245,VALID,0,VALID,100,VALID,-0.0169808,VALID,18.805,VALID,66,VALID,0,
2008-01-09, 03:08:00,VALID,917.245,VALID,0,VALID,100,VALID,0.0169808,VALID,18.7928,VALID,66,VALID,0,
2008-01-09, 03:09:00,VALID,917.248,VALID,0,VALID,100,VALID,-0.0169808,VALID,18.7893,VALID,66,VALID,0,
2008-01-09, 03:10:00,VALID,917.237,VALID,0,VALID,100,VALID,0,VALID,18.7694,VALID,66,VALID,0,
2008-01-09, 03:11:00,VALID,917.242,VALID,0,VALID,100,VALID,-0.0339617,VALID,18.7763,VALID,66,VALID,0,
2008-01-09, 03:12:00,VALID,917.25,VALID,0,VALID,100,VALID,-0.0169808,VALID,18.7833,VALID,66,VALID,0,
2008-01-09, 03:13:00,VALID,917.231,VALID,0,VALID,100,VALID,-0.0849042,VALID,18.7645,VALID,66,VALID,0,
2008-01-09, 03:14:00,VALID,917.227,VALID,0,VALID,100,VALID,-0.0849042,VALID,18.758,VALID,67,VALID,0,
2008-01-09, 03:15:00,VALID,917.221,VALID,0,VALID,100,VALID,-0.0679233,VALID,18.7511,VALID,72,VALID,0.161156,
2008-01-09, 03:16:00,VALID,917.221,VALID,0,VALID,100,VALID,-0.0679233,VALID,18.761,VALID,77,VALID,0.472752,
2008-01-09, 03:17:00,VALID,917.226,VALID,0,VALID,100,VALID,-0.101885,VALID,18.7678,VALID,77,VALID,0.197569,
2008-01-09, 03:18:00,VALID,917.228,VALID,0,VALID,100,VALID,-0.101885,VALID,18.7583,VALID,77,VALID,0,
2008-01-09, 03:19:00,VALID,917.237,VALID,0,VALID,100,VALID,-0.0849042,VALID,18.7386,VALID,77,VALID,0,
2008-01-09, 03:20:00,VALID,917.241,VALID,0,VALID,100,VALID,-0.0849042,VALID,18.6839,VALID,77,VALID,0,
2008-01-09, 03:21:00,VALID,917.239,VALID,0,VALID,100,VALID,-0.101885,VALID,18.6675,VALID,77,VALID,0.221168,
2008-01-09, 03:22:00,VALID,917.237,VALID,0,VALID,100,VALID,-0.101885,VALID,18.6769,VALID,77,VALID,0.473133,
2008-01-09, 03:23:00,VALID,917.251,VALID,0,VALID,100,VALID,-0.0849042,VALID,18.6904,VALID,77,VALID,0.472561,
2008-01-09, 03:24:00,VALID,917.243,VALID,0,VALID,100,VALID,-0.118866,VALID,18.6677,VALID,77,VALID,0.466704,
2008-01-09, 03:25:00,VALID,917.246,VALID,0,VALID,100,VALID,-0.101885,VALID,18.7001,VALID,76,VALID,0.492569,
2008-01-09, 03:26:00,VALID,917.254,VALID,0,VALID,100,VALID,-0.101885,VALID,18.7388,VALID,72,VALID,0.594512,
2008-01-09, 03:27:00,VALID,917.256,VALID,0,VALID,100,VALID,-0.0509425,VALID,18.7708,VALID,71,VALID,0.64939,
2008-01-09, 03:28:00,VALID,917.249,VALID,0,VALID,100,VALID,0,VALID,18.7888,VALID,71,VALID,0.582741,
2008-01-09, 03:29:00,VALID,917.256,VALID,0,VALID,100,VALID,0,VALID,18.8023,VALID,70,VALID,0.349254,
2008-01-09, 03:30:00,VALID,917.253,VALID,0,VALID,100,VALID,0.0339617,VALID,18.7955,VALID,70,VALID,0.196555,
2008-01-09, 03:31:00,VALID,917.257,VALID,0,VALID,100,VALID,0.0169808,VALID,18.8115,VALID,70,VALID,0,
2008-01-09, 03:32:00,VALID,917.253,VALID,0,VALID,100,VALID,0.0169808,VALID,18.8083,VALID,70,VALID,0,
2008-01-09, 03:33:00,VALID,917.266,VALID,0,VALID,100,VALID,0.0339617,VALID,18.8115,VALID,70,VALID,0,
2008-01-09, 03:34:00,VALID,917.28,VALID,0,VALID,100,VALID,0,VALID,18.8345,VALID,70,VALID,0,
2008-01-09, 03:35:00,VALID,917.296,VALID,0,VALID,100,VALID,0,VALID,18.8345,VALID,70,VALID,0,
2008-01-09, 03:36:00,VALID,917.308,VALID,0,VALID,100,VALID,0.0169808,VALID,18.834,VALID,70,VALID,0,
2008-01-09, 03:37:00,VALID,917.318,VALID,0,VALID,100,VALID,0,VALID,18.8275,VALID,70,VALID,0,
2008-01-09, 03:38:00,VALID,917.311,VALID,0,VALID,100,VALID,0,VALID,18.8474,VALID,70,VALID,0,
2008-01-09, 03:39:00,VALID,917.32,VALID,0,VALID,100,VALID,0.0339617,VALID,18.8372,VALID,70,VALID,0,
2008-01-09, 03:40:00,VALID,917.33,VALID,0,VALID,100,VALID,0,VALID,18.8539,VALID,70,VALID,0,
2008-01-09, 03:41:00,VALID,917.34,VALID,0,VALID,100,VALID,0,VALID,18.8504,VALID,70,VALID,0,
2008-01-09, 03:42:00,VALID,917.342,VALID,0,VALID,100,VALID,0,VALID,18.8636,VALID,70,VALID,0,
2008-01-09, 03:43:00,VALID,917.356,VALID,0,VALID,100,VALID,0.0169808,VALID,18.8701,VALID,70,VALID,0,
2008-01-09, 03:44:00,VALID,917.344,VALID,0,VALID,100,VALID,0,VALID,18.8836,VALID,70,VALID,0,
2008-01-09, 03:45:00,VALID,917.339,VALID,0,VALID,100,VALID,0.0169808,VALID,18.8868,VALID,70,VALID,0,
2008-01-09, 03:46:00,VALID,917.313,VALID,0,VALID,100,VALID,0,VALID,18.8831,VALID,70,VALID,0,
2008-01-09, 03:47:00,VALID,917.318,VALID,0,VALID,100,VALID,0.0169808,VALID,18.8996,VALID,70,VALID,0,
2008-01-09, 03:48:00,VALID,917.306,VALID,0,VALID,100,VALID,0.0169808,VALID,18.8993,VALID,70,VALID,0,
2008-01-09, 03:49:00,VALID,917.31,VALID,0,VALID,100,VALID,0,VALID,18.9023,VALID,70,VALID,0,
2008-01-09, 03:50:00,VALID,917.316,VALID,0,VALID,100,VALID,0,VALID,18.922,VALID,70,VALID,0,
2008-01-09, 03:51:00,VALID,917.32,VALID,0,VALID,100,VALID,0,VALID,18.9322,VALID,63,VALID,0,